Cloud_Cover
0 0 0 0 0 0 0 0 0 0 0 0 0 0 0 3 26 42 100 95 46 28 26 62 93 80 100 77 100 100 10 97
0 0 0 2 5 5 5 5 3 0 0 0 0 0 0 0 0 2 5 26 96 74 77 70 17 26 26 98 100 100 100 100
0 0 0 5 5 5 5 5 5 5 5 0 0 0 0 0 0 0 0 0 4 2 5 4 46 50 52 90 99 100 100 86
1 1 0 1 5 55 52 20 30 5 5 4 0 0 0 0 0 3 0 0 5 0 0 0 0 26 100 100 99 95 100 78
0 2 4 0 1 0 2 3 1 1 0 0 4 5 5 3 0 0 0 0 6 87 3 5 1 2 5 90 100 100 100 86
0 0 0 0 0 0 1 5 5 5 11 5 2 0 0 2 2 2 5 0 0 7 75 5 1 0 2 5 54 89 100 100
0 0 0 0 0 0 0 0 2 5 5 5 6 5 4 0 0 0 1 2 1 1 5 5 1 0 0 0 5 97 100 100
0 0 0 0 0 0 0 0 0 0 0 0 3 5 5 5 4 0 0 0 5 5 5 5 15 5 5 0 8 16 100 100
5 5 5 23 5 5 1 0 0 0 0 0 0 0 2 3 3 0 0 0 0 5 5 6 94 99 17 8 7 8 87 100
50 82 73 23 5 5 1 0 0 0 0 0 0 0 0 0 0 0 0 0 2 0 15 98 48 83 100 26 4 11 15 64
20 18 6 5 0 0 0 0 0 0 0 0 0 0 0 0 0 3 0 0 1 0 2 99 98 24 22 96 74 5 5 5
18 5 0 0 0 0 0 5 0 0 0 0 0 0 0 0 5 5 5 6 1 0 5 0 70 91 6 97 100 83 24 10
0 0 0 2 4 5 5 4 0 0 0 0 0 0 0 0 0 0 0 7 26 5 0 0 5 5 4 17 26 100 33 73
5 5 5 5 5 5 2 0 0 0 0 0 0 0 0 0 0 0 0 0 0 1 1 0 1 19 65 49 4 10 96 98
5 5 5 5 5 3 0 0 0 0 0 0 0 0 0 0 0 0 0 0 0 0 0 0 0 0 32 94 100 98 100 100
82 100 65 5 5 0 0 0 0 0 0 0 1 0 28 29 14 19 8 90 4 0 0 0 0 2 0 100 33 100 100 100
79 70 8 2 0 0 0 0 0 0 0 1 6 3 15 40 41 26 94 40 58 5 2 0 0 0 14 100 100 100 100 100
40 7 1 0 0 0 0 0 0 0 0 4 9 52 5 29 39 76 93 94 100 100 31 0 0 0 4 16 100 100 100 100
5 5 5 0 0 0 0 0 0 14 2 51 4 65 81 71 81 89 100 100 100 100 97 0 0 0 0 7 100 100 100 100